Indianapolis, IN

12:06 AM EST on December 14, 2019 (GMT -0500)
Indianapolis International

Weather History for KIND - April, 2019

Change the Weather History Date:

Tuesday, April 30, 2019

  Actual Average Record
Temperature  
Mean Temperature 62 °F 58 °F  
Max Temperature 71 °F 68 °F 90 °F (1942)
Min Temperature 53 °F 48 °F 31 °F (1948)
Degree Days  
Heating Degree Days 3 8  
Month to date heating degree days 322 370  
Since 1 July heating degree days 5251 5222  
Cooling Degree Days 0 1  
Month to date cooling degree days 1 13  
Year to date cooling degree days 1 15  
Growing Degree Days 12 (Base 50)    
Moisture  
Dew Point 52 °F    
Average Humidity 80    
Maximum Humidity 93    
Minimum Humidity 66    
Precipitation  
Precipitation 0.00 in 0.14 in 1.66 in (1986)
Month to date precipitation 4.96 3.81  
Year to date precipitation 17.48 12.35  
Snow  
Snow 0.00 in 0.00 in 0.00 in ()
Month to date snowfall T 0.2  
Since 1 July snowfall 19.4 25.9  
Snow Depth 0.00 in    
Sea Level Pressure  
Sea Level Pressure 30.12 in    
Wind  
Wind Speed 10 mph (ENE)    
Max Wind Speed 18 mph    
Max Gust Speed 22 mph    
Visibility 10 miles    
Events      
T = Trace of Precipitation, MM = Missing Value Source: NWS Daily Summary

Daily Weather History Graph

Daily Weather History Graph

Search for Another Location

Airport or City:

Astronomy

Apr. 30, 2019 Rise Set
Actual Time 6:47 AM EDT 8:38 PM EDT
Civil Twilight 6:18 AM EDT 9:07 PM EDT
Nautical Twilight 5:42 AM EDT 9:42 PM EDT
Astronomical Twilight 5:05 AM EDT 10:20 PM EDT
Moon 5:02 AM EDT (4/30) 4:28 PM EDT (4/30)
Length of Visible Light 14h 49m
Length of Day
13h 50m
Waning Crescent, 17% of the Moon is Illuminated
Apr 30
Waning Crescent
May 4
New
May 11
First Quarter
May 18
Full
May 26
Last Quarter

Hourly Weather History & Observations

Time (EDT) Temp. Dew Point Humidity Pressure Visibility Wind Dir Wind Speed Gust Speed Precip Events Conditions
12:54 AM 53.1 °F 50.0 °F 89% 30.15 in 10.0 mi North 10.4 mph - N/A   Mostly Cloudy
1:35 AM 54.0 °F 51.1 °F 90% 30.15 in 10.0 mi NNE 5.8 mph - N/A   Overcast
1:54 AM 54.0 °F 51.1 °F 90% 30.14 in 10.0 mi NNE 9.2 mph - N/A   Overcast
2:54 AM 54.0 °F 50.0 °F 86% 30.12 in 10.0 mi ENE 6.9 mph - N/A   Mostly Cloudy
3:54 AM 53.1 °F 50.0 °F 89% 30.13 in 10.0 mi NE 6.9 mph - N/A   Overcast
4:54 AM 53.1 °F 48.9 °F 86% 30.16 in 10.0 mi NE 6.9 mph - N/A   Overcast
5:25 AM 53.1 °F 48.9 °F 86% 30.16 in 10.0 mi NE 6.9 mph - N/A   Overcast
5:33 AM 54.0 °F 48.9 °F 83% 30.16 in 10.0 mi ENE 6.9 mph - N/A   Overcast
5:54 AM 54.0 °F 48.9 °F 83% 30.15 in 10.0 mi East 8.1 mph - N/A   Overcast
6:04 AM 54.0 °F 48.9 °F 83% 30.15 in 10.0 mi East 8.1 mph - N/A   Overcast
6:14 AM 53.1 °F 48.9 °F 86% 30.14 in 10.0 mi East 8.1 mph - N/A   Overcast
6:41 AM 53.1 °F 48.9 °F 86% 30.16 in 10.0 mi East 6.9 mph - N/A   Overcast
6:54 AM 53.1 °F 48.9 °F 86% 30.17 in 10.0 mi East 8.1 mph - N/A   Overcast
7:54 AM 53.1 °F 48.9 °F 86% 30.17 in 10.0 mi East 10.4 mph - N/A   Overcast
8:26 AM 54.0 °F 48.0 °F 80% 30.18 in 10.0 mi East 12.7 mph - N/A   Overcast
8:54 AM 54.0 °F 48.0 °F 80% 30.18 in 8.0 mi East 11.5 mph - N/A   Overcast
9:15 AM 54.0 °F 48.9 °F 83% 30.19 in 8.0 mi East 10.4 mph - N/A   Overcast
9:54 AM 54.0 °F 48.9 °F 83% 30.21 in 7.0 mi ENE 9.2 mph - N/A   Overcast
10:34 AM 54.0 °F 48.9 °F 83% 30.21 in 7.0 mi NE 12.7 mph - N/A   Overcast
10:54 AM 54.0 °F 48.0 °F 80% 30.21 in 8.0 mi NE 15.0 mph - N/A   Overcast
11:54 AM 55.9 °F 48.9 °F 77% 30.19 in 7.0 mi East 15.0 mph - N/A   Overcast
12:54 PM 55.9 °F 48.9 °F 77% 30.18 in 9.0 mi East 12.7 mph - N/A   Overcast
1:08 PM 55.9 °F 48.9 °F 77% 30.17 in 10.0 mi East 12.7 mph - N/A   Overcast
1:54 PM 59.0 °F 51.1 °F 75% 30.16 in 10.0 mi ENE 11.5 mph - N/A   Overcast
2:54 PM 62.1 °F 53.1 °F 72% 30.13 in 10.0 mi East 9.2 mph - N/A   Overcast
3:54 PM 64.0 °F 54.0 °F 70% 30.10 in 10.0 mi East 12.7 mph - N/A   Overcast
4:54 PM 69.1 °F 57.9 °F 68% 30.06 in 10.0 mi SE 12.7 mph - N/A   Overcast
5:54 PM 70.0 °F 60.1 °F 71% 30.03 in 10.0 mi ESE 12.7 mph - N/A   Overcast
6:54 PM 70.0 °F 61.0 °F 73% 30.02 in 10.0 mi ESE 9.2 mph - N/A   Overcast
7:54 PM 70.0 °F 61.0 °F 73% 30.00 in 10.0 mi East 8.1 mph - N/A   Overcast
8:54 PM 68.0 °F 61.0 °F 78% 29.98 in 10.0 mi East 10.4 mph - N/A   Overcast
9:54 PM 68.0 °F 61.0 °F 78% 29.99 in 10.0 mi ESE 10.4 mph - N/A   Overcast
10:54 PM 64.0 °F 57.9 °F 80% 29.99 in 10.0 mi North 6.9 mph - N/A   Overcast
11:54 PM 62.1 °F 57.9 °F 86% 29.99 in 10.0 mi NNE 5.8 mph - N/A   Mostly Cloudy